User: anonymous   Login
Location: Bussy-Saint-Georges
(48.8410°N, 2.7017°E)
Time: 02:26:44
(UTC+00:00)
Language:

SL-16 R/B - Orbit

View from above orbital plane
View from above orbital plane
View from above satellite
View from above satellite

Ground track
Ground track

The orbit data is extracted from the following two-line orbital elements,

1 31793U 07029B   22026.61437647 -.00000079  00000-0 -16261-4 0  9999
2 31793  70.9750  90.8333 0001943 262.1065 250.0314 14.14455938752809
Epoch (UTC): 26 January 2022 14:44:42
Eccentricity: 0.0001943
inclination: 70.9750°
perigee height: 843 km
apogee height: 845 km
right ascension of ascending node: 90.8333°
argument of perigee: 262.1065°
revolutions per day: 14.14455938
mean anomaly at epoch: 250.0314°
orbit number at epoch: 75280

The dashed part of the orbit path shows where the satellite is in the earth's shadow,  

DLR